Location: New Plymouth
(39.0670°S, 174.0830°E)
Time: 23:53:39
(UTC+13:00)

Cosmos 1763 Rocket - Pass Details

Date: 24 January 2019
Orbit: 733 x 780 km, 74.0° (Epoch: 20 February)

Event Time Altitude Azimuth Distance (km) Brightness Sun altitude
Rises 22:23:28 0° 203° (SSW) 3,263 8.0 -16.4°
Reaches altitude 10° 22:25:54 10° 205° (SSW) 2,322 7.1 -16.7°
Maximum altitude 22:31:06 62° 285° (WNW) 854 3.8 -17.5°
Enters shadow 22:34:29 21° 360° (N) 1,643 4.8 -17.9°
